Regional Weather Roundup
Issued by NWS

Home | Current Version | Previous Version | Text Only | Print | Product List | Glossary Off
Versions: 1 2 3 4 5 6 7 8 9 10 11 12 13 14 15 16 17 18 19 20 21 22 23 24 25 26 27 28 29 30 31 32 33 34 35 36 37 38 39 40 41 42 43 44 45 46 47 48 49 50

000
ASUS43 KLOT 010100
RWRIL

ILLINOIS REGIONAL WEATHER ROUNDUP
NATIONAL WEATHER SERVICE CHICAGO/ROMEOVILLE IL
800 PM CDT THU JUL 31 2014

NOTE: "FAIR" INDICATES FEW OR NO CLOUDS BELOW 12,000 FEET WITH NO
SIGNIFICANT WEATHER AND/OR OBSTRUCTIONS TO VISIBILITY.

* THESE STATIONS ARE NOT UNDER NWS QUALITY CONTROL. THEY ALSO MAY NOT
  REPORT WEATHER SUCH AS PRECIPITATION OR FOG.

ILZ001-002-007-009-015-016-024-010200-
NORTHWEST ILLINOIS

CITY           SKY/WX    TMP DP  RH WIND       PRES   REMARKS
MOLINE         CLEAR     76  63  64 CALM      30.03R
STERLING*      CLEAR     73  61  64 CALM      30.03F
$$

ILZ003-004-008-010-011-017-018-010200-
NORTH CENTRAL ILLINOIS

CITY           SKY/WX    TMP DP  RH WIND       PRES   REMARKS
ROCKFORD       CLEAR     74  57  55 SW5       30.04S
$$

ILZ005-006-012>014-019>023-010200-
NORTHEAST ILLINOIS

CITY           SKY/WX    TMP DP  RH WIND       PRES   REMARKS
CHICAGO-OHARE  PTCLDY    78  56  46 W9        30.02R
CHICAGO-MIDWAY PTCLDY    80  58  46 W9        30.02S HX  80
AURORA         CLEAR     73  61  65 SW3       30.04R
WAUKEGAN       CLEAR     75  56  51 VRB3      30.00S
DUPAGE AIRPORT CLEAR     75  60  59 SW6       30.03R
WHEELING       CLEAR     78  57  48 W6        30.03S
NORTHERLY ISL    N/A     79  54  41 SW7         N/A
$$

LMZ740>746-010200-
SOUTHERN LAKE MICHIGAN

STATION/POSITION SKY/WX   TEMP    WIND        PRES    VSBY  WAVE
                          AIR SEA DIR/SP/G                  HT/PER
                          (F)     (DEG/KT/KT) (MB)    (MI)  (FT/S)
SOUTHERN BUOY              66 64  180/  8/  8 1016.0R         0
WAUKEGAN HARBOR            78     240/  8/ 10   N/A
HARRISON CRIB              78     270/ 11/ 13   N/A
BURNHAM HARBOR             79     270/  8/ 13   N/A
CALUMET HARBOR             79     240/  8/ 10 1015.5R
MICHIGAN CITY              77     200/  5/  6   N/A
MICHIGAN CITY 6N           72 71  220/  4/  4   N/A           1
ST. JOSEPH                 73 69  180/  6/  6   N/A           1
$$

ILZ025>027-034>036-040-047-049-050-058-095>099-010200-
WEST-CENTRAL ILLINOIS

CITY           SKY/WX    TMP DP  RH WIND       PRES   REMARKS
QUINCY         CLEAR     76  61  59 CALM      30.05S
$$

ILZ028>032-037-038-041>044-048-051>054-059>061-010200-
CENTRAL ILLINOIS

CITY           SKY/WX    TMP DP  RH WIND       PRES   REMARKS
DECATUR        CLEAR     75  63  66 SE3       30.06S
PEORIA         CLEAR     76  61  59 CALM      30.05S
SPRINGFIELD    PTCLDY    77  65  66 NE3       30.05S
TAYLORVILLE    NOT AVBL
$$

ILZ033-039-045-046-055>057-062-063-010200-
EAST-CENTRAL ILLINOIS

CITY           SKY/WX    TMP DP  RH WIND       PRES   REMARKS
CHAMPAIGN      CLEAR     73  64  73 CALM      30.06S
MATTOON        CLEAR     73  64  73 CALM      30.06R
$$

ILZ079-100>102-010200-
SOUTHWEST ILLINOIS

CITY           SKY/WX    TMP DP  RH WIND       PRES   REMARKS
ALTON          PTCLDY    75  64  69 VRB3      30.05S
BELLEVILLE     PTCLDY    77  67  71 CALM      30.03S
CAHOKIA*       MOCLDY    77  63  61 CALM      30.04R
$$

ILZ064>066-069>071-074>076-080>082-084>086-088>090-092>094-010200-
SOUTH-CENTRAL ILLINOIS

CITY           SKY/WX    TMP DP  RH WIND       PRES   REMARKS
CARBONDALE     PTCLDY    74  64  71 SW6       30.05S
MT. VERNON     PTCLDY    73  61  64 CALM      30.06S
$$

ILZ067-068-072-073-078-083-087-091-010200-
SOUTHEAST ILLINOIS

CITY           SKY/WX    TMP DP  RH WIND       PRES   REMARKS
LAWRENCEVILLE  PTCLDY    76  67  73 CALM      30.06S
FLORA*         CLEAR     76  65  67 SE5       30.05S
$$

ABBREVIATIONS USED IN REMARKS
   TC - TEMPERATURE IN CELSIUS
  WCI - WIND CHILL INDEX
   HX - HEAT INDEX
  VSB - VISIBILITY
$$




USA.gov is the U.S. government's official web portal to all federal, state and local government web resources and services.